Find SPADEX-A

NORAD ID: 62459 Int'l Des: 2024-253 Owner: ISRO Country: IN operational
LEOCIRCULAR

Live Position

Loading 3D Globe...

About SPADEX-A

Description loading...

Upcoming Passes

Passes for default location (London). Set your location on the main map for personalized predictions.

Altitude History

Loading altitude history...

Two-Line Element Set

1 62459U 24253A 26107.28221936 .00034949 00000-0 39351-3 0 9994
2 62459 54.9942 273.4073 0005072 63.2293 296.9264 15.62277778 72993
Epoch: Apr 17, 2026 • Age: 9 hours

Current Status

Altitude 382.0 km
Velocity 7.69 km/s
Sub-Earth Point 42.60°N, 137.75°W
Launch Date Dec 30, 2024
Age 1.2 years
Type other

Technical Details

Classification Payload
Mass 220.00 kg
Dry Mass 180.00 kg
Total Mass 220.00 kg
Length 1.00 m
Diameter 0.50 m
Span 2.50 m
Shape Box+ 2 pan
Manufacturer ISRO
Bus Type SPADEX
Phase Status In Orbit
Owner/State ISRO/IN

Most Searched